Location: Hamilton
(37.7830°S, 175.2830°E)
Time: 22:02:35
(UTC+12:00)

X-37B - Visible Passes

Search period start: 09 August 2022 00:00
Search period end: 19 August 2022 00:00
Orbit: 328 x 343 km, 45.0° (Epoch: 27 July)

Date Brightness Start Highest point End Pass type
(mag) Time Alt. Az. Time Alt. Az. Time Alt. Az.
09 Aug 1.3 18:21:41 10° SW 18:24:21 33° SSE 18:26:12 16° ESE visible
09 Aug 3.9 19:57:11 10° WSW 19:57:27 12° W 19:57:27 12° W visible
10 Aug 0.2 18:42:02 10° WSW 18:44:54 75° SSE 18:46:13 28° ENE visible
11 Aug 1.7 19:02:38 10° WSW 19:05:17 35° NW 19:06:24 24° NNE visible
12 Aug 3.3 19:24:10 10° WNW 19:25:30 13° NW 19:26:49 10° NNW visible
13 Aug 1.9 18:08:03 10° WSW 18:10:44 36° NW 18:13:22 10° NE visible
14 Aug 3.5 18:29:35 10° WNW 18:30:57 13° NW 18:32:18 10° NNW visible
